Content
SEND FEEDBACK

Daily
Averages
Monthly
Summary
The Bahamas

NASSAU, THE BAHAMAS


Home > Caribbean > The Bahamas
Elevation: 23 feet     Latitude: 25 03N     Longitude: 077 28W

WEATHER
 
SELECT A DAY
Number of Records: 162,016;   Date Range: 6/30/96 - 10/19/14
 
SHARE

PRINT THIS DATA

[ ← Previous Day ]
WEATHER ALMANAC - JANUARY 16, 2013
[ Next Day → ]
[ °C ]   °F
Weather ElementAverageHighLow
Temperature74.9 °F80.6 °F (1:00 pm)71.6 °F (2:00 am)
Dewpoint68.1 °F70 °F (1:00 pm)66.2 °F (2:00 am)
Humidity78.2 %94 % (7:00 am)63 % (10:00 am)
Barometer29.08 in30.15 in (10:00 am) (7:00 pm)
Wind Speed6 mph11.5 mph (10:00 am)
Weather ElementAverage
Visibility7 mi
Wind DirectionENE (64.6 °)

Weather ElementTotal
Precipitation---
Cooling Degree Days11.1 (Base 65)
Growing Degree Days26.1 (Base 50)
Averaged from 30 records on January 16, 2013
WEATHER CONDITIONS BREAKOUT
WIND DIRECTION BREAKOUT
WEATHER BY HOUR - JANUARY 16, 2013
[ °C ]   °F
Local TimeTemperatureDewpointHumidityBarometerVisibilityWind DirectionWind SpeedGust SpeedPrecipitationEventsConditions
1:00 AM72.0 °F68.0 °F85 %30.06 in9.0 miNE (50°)6.9 mphScattered Clouds
1:00 AM73.4 °F68.0 °F83 %30.06 in6.2 miNE (50°)6.9 mphPartly Cloudy
2:00 AM71.6 °F66.2 °F83 %30.05 in6.2 miNE (50°)4.6 mphScattered Clouds
3:00 AM71.6 °F66.2 °F83 %30.05 in6.2 miNE (50°)4.6 mphScattered Clouds
4:00 AM73.0 °F69.0 °F82 %30.06 in9.0 miNE (50°)4.6 mphMostly Cloudy
4:00 AM73.4 °F68.0 °F83 %30.06 in6.2 miNE (50°)4.6 mphMostly Cloudy
5:00 AM73.4 °F68.0 °F83 %30.06 in6.2 miNE (50°)3.5 mphScattered Clouds
6:00 AM71.6 °F66.2 °F83 %30.08 in6.2 miNE (50°)3.5 mphScattered Clouds
7:00 AM72.0 °F69.0 °F88 %30.09 in9.0 miCalmMostly Cloudy
7:00 AM71.6 °F69.8 °F94 %30.09 in6.2 miCalmMostly Cloudy
8:00 AM73.4 °F68.0 °F83 %30.11 in6.2 miNE (50°)4.6 mphMostly Cloudy
9:00 AM75.2 °F68.0 °F78 %30.13 in6.2 miEast (90°)6.9 mphMostly Cloudy
10:00 AM78.0 °F68.0 °F63 %30.15 in9.0 miEast (90°)11.5 mphPartly Cloudy
10:00 AM77.0 °F68.0 °F74 %30.14 in6.2 miEast (90°)11.5 mphScattered Clouds
11:00 AM77.0 °F66.2 °F69 %30.12 in6.2 miNE (50°)6.9 mphPartly Cloudy
12:00 PM77.0 °F66.2 °F69 %30.10 in6.2 miNE (50°)11.5 mphScattered Clouds
1:00 PM80.0 °F70.0 °F64 %30.08 in9.0 miEast (90°)9.2 mphPartly Cloudy
1:00 PM80.6 °F69.8 °F70 %30.08 in6.2 miEast (90°)9.2 mphScattered Clouds
2:00 PM77.0 °F66.2 °F69 %30.06 in6.2 miEast (90°)11.5 mphPartly Cloudy
3:00 PM77.0 °F68.0 °F74 %30.04 in6.2 miEast (90°)10.4 mphPartly Cloudy
4:00 PM77.0 °F69.0 °F69 %30.06 in9.0 miEast (90°)11.5 mphPartly Cloudy
4:00 PM77.0 °F68.0 °F74 %30.06 in6.2 miEast (90°)11.5 mphScattered Clouds
5:00 PM77.0 °F68.0 °F74 %30.06 in6.2 miEast (90°)6.9 mphScattered Clouds
6:00 PM75.2 °F68.0 °F78 %30.07 in6.2 miNE (50°)3.5 mphMostly Cloudy
7:00 PM75.0 °F70.0 °F79 %30.09 in9.0 miCalmPartly Cloudy
7:00 PM75.2 °F69.8 °F83 %30.09 inNorthScattered Clouds
8:00 PM73.4 °F68.0 °F83 %6.2 miEast (90°)3.5 mphMostly Cloudy
9:00 PM73.4 °F68.0 °F83 %30.09 in6.2 miESE (110°)3.5 mphScattered Clouds
10:00 PM74.0 °F69.0 °F81 %30.10 in9.0 miESE (110°)2.3 mphPartly Cloudy
11:00 PM73.4 °F68.0 °F83 %30.10 in6.2 miCalmScattered Clouds
Hourly data recorded from MYNN, located miles away from Nassau, The Bahamas







STORIES FROM OUR PARTNERS